Location: Mentone
(34.5413°N, 85.5351°W)
Time: 08:24:14
(UTC-06:00)

Centaur AC-72 - Visible Passes

Search period start: 18 December 2014 00:00
Search period end: 28 December 2014 00:00
Orbit: 1152 x 35205 km, 19.1° (Epoch: 15 December)

Date Brightness Start Highest point End Pass type
(mag) Time Alt. Az. Time Alt. Az. Time Alt. Az.
18 Dec 7.3 14:33:59 10° W 15:55:40 65° SSW 00:11:33 10° SSW visible
19 Dec 6.9 11:39:41 10° WSW 12:01:22 60° SSE 21:21:46 10° SSE visible
20 Dec 6.2 08:50:19 10° SSW 09:00:10 30° SE 10:11:28 10° E visible
21 Dec 9.5 17:24:26 10° W 18:55:38 35° WSW 23:06:29 10° W visible
22 Dec 7.3 14:18:01 10° W 15:35:55 65° SSW 23:55:47 10° SSW visible
23 Dec 6.8 11:23:53 10° WSW 11:44:44 60° SSE 21:05:23 10° SSE visible
24 Dec 6.2 08:34:31 10° SSW 08:44:03 30° SE 09:43:33 10° E visible
25 Dec 9.4 17:07:55 10° W 18:38:39 36° WSW 22:53:02 10° WSW visible
26 Dec 7.3 14:02:05 10° W 15:16:10 65° SSW 23:40:02 10° S visible
27 Dec 6.7 11:08:05 10° WSW 11:28:08 60° SSE 20:48:59 10° SSE visible
